Location: Branche des Alpilles
(43.6087°N, 4.6976°E)
Time: 10:31:34
(UTC+00:00)

FENGYUN 1C DEB - Pass Details

Date: 29 June 2021
Orbit: 782 x 878 km, 99.7° (Epoch: 28 July)

Event Time Altitude Azimuth Distance (km) Brightness Sun altitude
Exits shadow 01:05:32 23° 144° (SE) 1,643 ? -20.6°
Maximum altitude 01:08:45 62° 71° (ENE) 893 ? -20.4°
Drops below altitude 10° 01:13:50 10° 351° (N) 2,352 ? -20.1°
Sets 01:16:10 0° 349° (NNW) 3,281 ? -19.9°
